Location: *
(46.3500°N, 10.9000°E)
Time: 01:03:39
(UTC+00:00)

Cosmos 2082 Rocket - Pass Details

Date: 09 April 2020
Orbit: 831 x 855 km, 71.0° (Epoch: 30 May)

Event Time Altitude Azimuth Distance (km) Brightness Sun altitude
Exits shadow 20:33:59 20° 61° (ENE) 1,858 3.8 -24.6°
Drops below altitude 10° 20:36:03 10° 45° (NE) 2,466 4.6 -24.8°
Sets 20:38:47 0° 35° (NE) 3,409 5.5 -25.1°
